Year,Month,Day,Hour,Minute,Value (Times are PST for temperature in C)
2019,03,18,00,00,9.80
2019,03,18,00,01,9.80
2019,03,18,00,02,9.80
2019,03,18,00,03,9.80
2019,03,18,00,04,9.80
2019,03,18,00,05,9.80
2019,03,18,00,06,9.80
2019,03,18,00,07,9.80
2019,03,18,00,08,9.80
2019,03,18,00,09,9.80
2019,03,18,00,10,9.80
2019,03,18,00,11,9.80
2019,03,18,00,12,9.80
2019,03,18,00,13,9.80
2019,03,18,00,14,9.80
2019,03,18,00,15,9.80
2019,03,18,00,16,9.70
2019,03,18,00,17,9.70
2019,03,18,00,18,9.70
2019,03,18,00,19,9.70
2019,03,18,00,20,9.70
2019,03,18,00,21,9.70
2019,03,18,00,22,9.60
2019,03,18,00,23,9.60
2019,03,18,00,24,9.60
2019,03,18,00,25,9.60
2019,03,18,00,26,9.60
2019,03,18,00,27,9.60
2019,03,18,00,28,9.60
2019,03,18,00,29,9.60
2019,03,18,00,30,9.60
2019,03,18,00,31,9.60
2019,03,18,00,32,9.60
2019,03,18,00,33,9.60
2019,03,18,00,34,9.60
2019,03,18,00,35,9.60
2019,03,18,00,36,9.60
2019,03,18,00,37,9.60
2019,03,18,00,38,9.60
2019,03,18,00,39,9.60
2019,03,18,00,40,9.60
2019,03,18,00,41,9.60
2019,03,18,00,42,9.60
2019,03,18,00,43,9.60
2019,03,18,00,44,9.50
2019,03,18,00,45,9.60
2019,03,18,00,46,9.60
2019,03,18,00,47,9.60
2019,03,18,00,48,9.60
2019,03,18,00,49,9.60
2019,03,18,00,50,9.60
2019,03,18,00,51,9.60
2019,03,18,00,52,9.60
2019,03,18,00,53,9.60
2019,03,18,00,54,9.60
2019,03,18,00,55,9.70
2019,03,18,00,56,9.70
2019,03,18,00,57,9.80
2019,03,18,00,58,9.80
2019,03,18,00,59,9.90
2019,03,18,01,00,9.90
2019,03,18,01,01,9.90
2019,03,18,01,02,9.90
2019,03,18,01,03,9.90
2019,03,18,01,04,10.00
2019,03,18,01,05,10.00
2019,03,18,01,06,10.00
2019,03,18,01,07,10.00
2019,03,18,01,08,10.00
2019,03,18,01,09,10.10
2019,03,18,01,10,10.10
2019,03,18,01,11,10.10
2019,03,18,01,12,10.10
2019,03,18,01,13,10.10
2019,03,18,01,14,10.10
2019,03,18,01,15,10.10
2019,03,18,01,16,10.10
2019,03,18,01,17,10.00
2019,03,18,01,18,10.00
2019,03,18,01,19,10.00
2019,03,18,01,20,10.00
2019,03,18,01,21,10.00
2019,03,18,01,22,10.00
2019,03,18,01,23,10.00
2019,03,18,01,24,10.00
2019,03,18,01,25,10.00
2019,03,18,01,26,10.00
2019,03,18,01,27,10.00
2019,03,18,01,28,10.00
2019,03,18,01,29,10.00
2019,03,18,01,30,10.00
2019,03,18,01,31,10.00
2019,03,18,01,32,10.00
2019,03,18,01,33,9.90
2019,03,18,01,34,9.90
2019,03,18,01,35,9.90
2019,03,18,01,36,9.90
2019,03,18,01,37,9.80
2019,03,18,01,38,9.80
2019,03,18,01,39,9.80
2019,03,18,01,40,9.80
2019,03,18,01,41,9.80
2019,03,18,01,42,9.80
2019,03,18,01,43,9.80
2019,03,18,01,44,9.70
2019,03,18,01,45,9.70
2019,03,18,01,46,9.70
2019,03,18,01,47,9.60
2019,03,18,01,48,9.60
2019,03,18,01,49,9.60
2019,03,18,01,50,9.60
2019,03,18,01,51,9.60
2019,03,18,01,52,9.60
2019,03,18,01,53,9.50
2019,03,18,01,54,9.50
2019,03,18,01,55,9.50
2019,03,18,01,56,9.50
2019,03,18,01,57,9.50
2019,03,18,01,58,9.50
2019,03,18,01,59,9.40
2019,03,18,02,00,9.40
2019,03,18,02,01,9.40
2019,03,18,02,02,9.40
2019,03,18,02,03,9.40
2019,03,18,02,04,9.30
2019,03,18,02,05,9.30
2019,03,18,02,06,9.20
2019,03,18,02,07,9.20
2019,03,18,02,08,9.10
2019,03,18,02,09,9.10
2019,03,18,02,10,9.00
2019,03,18,02,11,8.90
2019,03,18,02,12,8.90
2019,03,18,02,13,8.90
2019,03,18,02,14,8.80
2019,03,18,02,15,8.80
2019,03,18,02,16,8.80
2019,03,18,02,17,8.80
2019,03,18,02,18,8.80
2019,03,18,02,19,8.80
2019,03,18,02,20,8.80
2019,03,18,02,21,8.80
2019,03,18,02,22,8.80
2019,03,18,02,23,8.80
2019,03,18,02,24,8.80
2019,03,18,02,25,8.80
2019,03,18,02,26,8.80
2019,03,18,02,27,8.70
2019,03,18,02,28,8.70
2019,03,18,02,29,8.70
2019,03,18,02,30,8.60
2019,03,18,02,31,8.60
2019,03,18,02,32,8.60
2019,03,18,02,33,8.50
2019,03,18,02,34,8.50
2019,03,18,02,35,8.50
2019,03,18,02,36,8.40
2019,03,18,02,37,8.40
2019,03,18,02,38,8.40
2019,03,18,02,39,8.30
2019,03,18,02,40,8.30
2019,03,18,02,41,8.30
2019,03,18,02,42,8.30
2019,03,18,02,43,8.30
2019,03,18,02,44,8.30
2019,03,18,02,45,8.30
2019,03,18,02,46,8.20
2019,03,18,02,47,8.20
2019,03,18,02,48,8.20
2019,03,18,02,49,8.20
2019,03,18,02,50,8.20
2019,03,18,02,51,8.20
2019,03,18,02,52,8.20
2019,03,18,02,53,8.20
2019,03,18,02,54,8.20
2019,03,18,02,55,8.20
2019,03,18,02,56,8.20
2019,03,18,02,57,8.20
2019,03,18,02,58,8.20
2019,03,18,02,59,8.20
2019,03,18,03,00,8.40
2019,03,18,03,01,8.50
2019,03,18,03,02,8.60
2019,03,18,03,03,8.80
2019,03,18,03,04,8.90
2019,03,18,03,05,9.00
2019,03,18,03,06,9.00
2019,03,18,03,07,9.10
2019,03,18,03,08,9.10
2019,03,18,03,09,9.10
2019,03,18,03,10,9.20
2019,03,18,03,11,9.30
2019,03,18,03,12,9.30
2019,03,18,03,13,9.40
2019,03,18,03,14,9.40
2019,03,18,03,15,9.40
2019,03,18,03,16,9.40
2019,03,18,03,17,9.40
2019,03,18,03,18,9.40
2019,03,18,03,19,9.50
2019,03,18,03,20,9.50
2019,03,18,03,21,9.60
2019,03,18,03,22,9.60
2019,03,18,03,23,9.70
2019,03,18,03,24,9.80
2019,03,18,03,25,9.80
2019,03,18,03,26,9.80
2019,03,18,03,27,9.80
2019,03,18,03,28,9.90
2019,03,18,03,29,10.00
2019,03,18,03,30,10.20
2019,03,18,03,31,10.10
2019,03,18,03,32,10.10
2019,03,18,03,33,10.20
2019,03,18,03,34,10.20
2019,03,18,03,35,10.20
2019,03,18,03,36,10.20
2019,03,18,03,37,10.20
2019,03,18,03,38,10.00
2019,03,18,03,39,10.00
2019,03,18,03,40,9.90
2019,03,18,03,41,9.90
2019,03,18,03,42,9.90
2019,03,18,03,43,9.90
2019,03,18,03,44,9.80
2019,03,18,03,45,9.80
2019,03,18,03,46,9.80
2019,03,18,03,47,9.80
2019,03,18,03,48,9.80
2019,03,18,03,49,9.80
2019,03,18,03,50,9.70
2019,03,18,03,51,9.60
2019,03,18,03,52,9.50
2019,03,18,03,53,9.40
2019,03,18,03,54,9.30
2019,03,18,03,55,9.20
2019,03,18,03,56,9.10
2019,03,18,03,57,9.00
2019,03,18,03,58,9.00
2019,03,18,03,59,8.90
2019,03,18,04,00,8.90
2019,03,18,04,01,8.90
2019,03,18,04,02,8.90
2019,03,18,04,03,8.90
2019,03,18,04,04,8.90
2019,03,18,04,05,8.90
2019,03,18,04,06,8.90
2019,03,18,04,07,9.00
2019,03,18,04,08,9.00
2019,03,18,04,09,9.00
2019,03,18,04,10,8.90
2019,03,18,04,11,8.90
2019,03,18,04,12,8.90
2019,03,18,04,13,8.90
2019,03,18,04,14,8.90
2019,03,18,04,15,8.90
2019,03,18,04,16,8.90
2019,03,18,04,17,8.80
2019,03,18,04,18,8.90
2019,03,18,04,19,8.90
2019,03,18,04,20,8.90
2019,03,18,04,21,9.00
2019,03,18,04,22,9.00
2019,03,18,04,23,9.00
2019,03,18,04,24,9.10
2019,03,18,04,25,9.10
2019,03,18,04,26,9.10
2019,03,18,04,27,9.20
2019,03,18,04,28,9.20
2019,03,18,04,29,9.20
2019,03,18,04,30,9.20
2019,03,18,04,31,9.30
2019,03,18,04,32,9.30
2019,03,18,04,33,9.30
2019,03,18,04,34,9.30
2019,03,18,04,35,9.40
2019,03,18,04,36,9.30
2019,03,18,04,37,9.30
2019,03,18,04,38,9.30
2019,03,18,04,39,9.40
2019,03,18,04,40,9.50
2019,03,18,04,41,9.60
2019,03,18,04,42,9.70
2019,03,18,04,43,9.80
2019,03,18,04,44,9.90
2019,03,18,04,45,9.90
2019,03,18,04,46,9.90
2019,03,18,04,47,9.90
2019,03,18,04,48,9.90
2019,03,18,04,49,9.80
2019,03,18,04,50,9.80
2019,03,18,04,51,9.70
2019,03,18,04,52,9.80
2019,03,18,04,53,9.80
2019,03,18,04,54,9.90
2019,03,18,04,55,9.90
2019,03,18,04,56,10.00
2019,03,18,04,57,10.00
2019,03,18,04,58,10.00
2019,03,18,04,59,10.00
2019,03,18,05,00,10.00
2019,03,18,05,01,10.00
2019,03,18,05,02,10.00
2019,03,18,05,03,9.90
2019,03,18,05,04,9.90
2019,03,18,05,05,9.90
2019,03,18,05,06,9.90
2019,03,18,05,07,9.90
2019,03,18,05,08,9.80
2019,03,18,05,09,9.80
2019,03,18,05,10,9.90
2019,03,18,05,11,9.90
2019,03,18,05,12,9.80
2019,03,18,05,13,9.80
2019,03,18,05,14,9.80
2019,03,18,05,15,9.70
2019,03,18,05,16,9.70
2019,03,18,05,17,9.70
2019,03,18,05,18,9.70
2019,03,18,05,19,9.60
2019,03,18,05,20,9.60
2019,03,18,05,21,9.50
2019,03,18,05,22,9.50
2019,03,18,05,23,9.40
2019,03,18,05,24,9.40
2019,03,18,05,25,9.40
2019,03,18,05,26,9.40
2019,03,18,05,27,9.30
2019,03,18,05,28,9.30
2019,03,18,05,29,9.20
2019,03,18,05,30,9.20
2019,03,18,05,31,9.30
2019,03,18,05,32,9.30
2019,03,18,05,33,9.30
2019,03,18,05,34,9.40
2019,03,18,05,35,9.40
2019,03,18,05,36,9.30
2019,03,18,05,37,9.30
2019,03,18,05,38,9.20
2019,03,18,05,39,9.20
2019,03,18,05,40,9.30
2019,03,18,05,41,9.30
2019,03,18,05,42,9.30
2019,03,18,05,43,9.30
2019,03,18,05,44,9.30
2019,03,18,05,45,9.20
2019,03,18,05,46,9.10
2019,03,18,05,47,9.10
2019,03,18,05,48,9.10
2019,03,18,05,49,9.10
2019,03,18,05,50,9.20
2019,03,18,05,51,9.10
2019,03,18,05,52,9.00
2019,03,18,05,53,8.90
2019,03,18,05,54,8.90
2019,03,18,05,55,8.90
2019,03,18,05,56,9.00
2019,03,18,05,57,9.00
2019,03,18,05,58,9.00
2019,03,18,05,59,8.90
2019,03,18,06,00,8.80
2019,03,18,06,01,8.80
2019,03,18,06,02,8.70
2019,03,18,06,03,8.70
2019,03,18,06,04,8.60
2019,03,18,06,05,8.60
2019,03,18,06,06,8.60
2019,03,18,06,07,8.60
2019,03,18,06,08,8.60
2019,03,18,06,09,8.60
2019,03,18,06,10,8.60
2019,03,18,06,11,8.70
2019,03,18,06,12,8.70
2019,03,18,06,13,8.70
2019,03,18,06,14,8.70
2019,03,18,06,15,8.80
2019,03,18,06,16,8.80
2019,03,18,06,17,8.80
2019,03,18,06,18,8.80
2019,03,18,06,19,8.70
2019,03,18,06,20,8.70
2019,03,18,06,21,8.70
2019,03,18,06,22,8.70
2019,03,18,06,23,8.80
2019,03,18,06,24,8.70
2019,03,18,06,25,8.70
2019,03,18,06,26,8.70
2019,03,18,06,27,8.70
2019,03,18,06,28,8.70
2019,03,18,06,29,8.70
2019,03,18,06,30,8.70
2019,03,18,06,31,8.70
2019,03,18,06,32,8.70
2019,03,18,06,33,8.60
2019,03,18,06,34,8.60
2019,03,18,06,35,8.60
2019,03,18,06,36,8.60
2019,03,18,06,37,8.50
2019,03,18,06,38,8.60
2019,03,18,06,39,8.60
2019,03,18,06,40,8.60
2019,03,18,06,41,8.60
2019,03,18,06,42,8.60
2019,03,18,06,43,8.60
2019,03,18,06,44,8.60
2019,03,18,06,45,8.60
2019,03,18,06,46,8.60
2019,03,18,06,47,8.70
2019,03,18,06,48,8.60
2019,03,18,06,49,8.60
2019,03,18,06,50,8.60
2019,03,18,06,51,8.60
2019,03,18,06,52,8.60
2019,03,18,06,53,8.60
2019,03,18,06,54,8.60
2019,03,18,06,55,8.70
2019,03,18,06,56,8.80
2019,03,18,06,57,8.80
2019,03,18,06,58,8.70
2019,03,18,06,59,8.70
2019,03,18,07,00,8.70
2019,03,18,07,01,8.70
2019,03,18,07,02,8.70
2019,03,18,07,03,8.70
2019,03,18,07,04,8.70
2019,03,18,07,05,8.70
2019,03,18,07,06,8.70
2019,03,18,07,07,8.60
2019,03,18,07,08,8.60
2019,03,18,07,09,8.60
2019,03,18,07,10,8.60
2019,03,18,07,11,8.60
2019,03,18,07,12,8.60
2019,03,18,07,13,8.60
2019,03,18,07,14,8.60
2019,03,18,07,15,8.60
2019,03,18,07,16,8.60
2019,03,18,07,17,8.60
2019,03,18,07,18,8.60
2019,03,18,07,19,8.60
2019,03,18,07,20,8.60
2019,03,18,07,21,8.60
2019,03,18,07,22,8.60
2019,03,18,07,23,8.60
2019,03,18,07,24,8.60
2019,03,18,07,25,8.60
2019,03,18,07,26,8.60
2019,03,18,07,27,8.60
2019,03,18,07,28,8.60
2019,03,18,07,29,8.60
2019,03,18,07,30,8.60
2019,03,18,07,31,8.50
2019,03,18,07,32,8.50
2019,03,18,07,33,8.50
2019,03,18,07,34,8.60
2019,03,18,07,35,8.60
2019,03,18,07,36,8.60
2019,03,18,07,37,8.60
2019,03,18,07,38,8.70
2019,03,18,07,39,8.70
2019,03,18,07,40,8.70
2019,03,18,07,41,8.70
2019,03,18,07,42,8.70
2019,03,18,07,43,8.70
2019,03,18,07,44,8.70
2019,03,18,07,45,8.70
2019,03,18,07,46,8.70
2019,03,18,07,47,8.80
2019,03,18,07,48,8.80
2019,03,18,07,49,8.80
2019,03,18,07,50,8.80
2019,03,18,07,51,8.80
2019,03,18,07,52,8.80
2019,03,18,07,53,8.80
2019,03,18,07,54,8.80
2019,03,18,07,55,8.90
2019,03,18,07,56,8.90
2019,03,18,07,57,8.90
2019,03,18,07,58,9.00
2019,03,18,07,59,9.00
2019,03,18,08,00,9.10
2019,03,18,08,01,9.10
2019,03,18,08,02,9.10
2019,03,18,08,03,9.10
2019,03,18,08,04,9.10
2019,03,18,08,05,9.10
2019,03,18,08,06,9.10
2019,03,18,08,07,9.10
2019,03,18,08,08,9.10
2019,03,18,08,09,9.10
2019,03,18,08,10,9.00
2019,03,18,08,11,9.00
2019,03,18,08,12,9.00
2019,03,18,08,13,9.00
2019,03,18,08,14,9.00
2019,03,18,08,15,9.00
2019,03,18,08,16,9.00
2019,03,18,08,17,9.10
2019,03,18,08,18,9.00
2019,03,18,08,19,9.00
2019,03,18,08,20,9.00
2019,03,18,08,21,9.00
2019,03,18,08,22,8.90
2019,03,18,08,23,8.90
2019,03,18,08,24,8.90
2019,03,18,08,25,8.90
2019,03,18,08,26,8.90
2019,03,18,08,27,8.90
2019,03,18,08,28,8.90
2019,03,18,08,29,8.80
2019,03,18,08,30,8.80
2019,03,18,08,31,8.80
2019,03,18,08,32,8.70
2019,03,18,08,33,8.70
2019,03,18,08,34,8.60
2019,03,18,08,35,8.60
2019,03,18,08,36,8.50
2019,03,18,08,37,8.50
2019,03,18,08,38,8.50
2019,03,18,08,39,8.50
2019,03,18,08,40,8.60
2019,03,18,08,41,8.60
2019,03,18,08,42,8.60
2019,03,18,08,43,8.60
2019,03,18,08,44,8.60
2019,03,18,08,45,8.60
2019,03,18,08,46,8.60
2019,03,18,08,47,8.60
2019,03,18,08,48,8.60
2019,03,18,08,49,8.60
2019,03,18,08,50,8.60
2019,03,18,08,51,8.60
2019,03,18,08,52,8.60
2019,03,18,08,53,8.60
2019,03,18,08,54,8.60
2019,03,18,08,55,8.60
2019,03,18,08,56,8.60
2019,03,18,08,57,8.60
2019,03,18,08,58,8.60
2019,03,18,08,59,8.70
2019,03,18,09,00,8.70
2019,03,18,09,01,8.70
2019,03,18,09,02,8.70
2019,03,18,09,03,8.70
2019,03,18,09,04,8.70
2019,03,18,09,05,8.80
2019,03,18,09,06,8.80
2019,03,18,09,07,8.80
2019,03,18,09,08,8.80
2019,03,18,09,09,8.80
2019,03,18,09,10,8.80
2019,03,18,09,11,8.80
2019,03,18,09,12,8.90
2019,03,18,09,13,8.80
2019,03,18,09,14,8.90
2019,03,18,09,15,8.90
2019,03,18,09,16,8.80
2019,03,18,09,17,8.80
2019,03,18,09,18,8.90
2019,03,18,09,19,8.90
2019,03,18,09,20,8.90
2019,03,18,09,21,8.90
2019,03,18,09,22,8.90
2019,03,18,09,23,8.90
2019,03,18,09,24,9.00
2019,03,18,09,25,9.00
2019,03,18,09,26,9.00
2019,03,18,09,27,9.00
2019,03,18,09,28,9.10
2019,03,18,09,29,9.10
2019,03,18,09,30,9.10
2019,03,18,09,31,9.10
2019,03,18,09,32,9.20
2019,03,18,09,33,9.20
2019,03,18,09,34,9.20
2019,03,18,09,35,9.30
2019,03,18,09,36,9.30
2019,03,18,09,37,9.30
2019,03,18,09,38,9.30
2019,03,18,09,39,9.30
2019,03,18,09,40,9.40
2019,03,18,09,41,9.40
2019,03,18,09,42,9.50
2019,03,18,09,43,9.50
2019,03,18,09,44,9.60
2019,03,18,09,45,9.60
2019,03,18,09,46,9.60
2019,03,18,09,47,9.60
2019,03,18,09,48,9.60
2019,03,18,09,49,9.70
2019,03,18,09,50,9.80
2019,03,18,09,51,9.80
2019,03,18,09,52,9.90
2019,03,18,09,53,10.00
2019,03,18,09,54,10.10
2019,03,18,09,55,10.10
2019,03,18,09,56,10.10
2019,03,18,09,57,10.10
2019,03,18,09,58,10.10
2019,03,18,09,59,10.10
2019,03,18,10,00,10.00
2019,03,18,10,01,9.90
2019,03,18,10,02,9.90
2019,03,18,10,03,9.90
2019,03,18,10,04,9.90
2019,03,18,10,05,9.80
2019,03,18,10,06,9.80
2019,03,18,10,07,9.80
2019,03,18,10,08,9.80
2019,03,18,10,09,9.80
2019,03,18,10,10,9.80
2019,03,18,10,11,9.90
2019,03,18,10,12,9.90
2019,03,18,10,13,9.90
2019,03,18,10,14,10.00
2019,03,18,10,15,10.00
2019,03,18,10,16,10.00
2019,03,18,10,17,10.00
2019,03,18,10,18,10.00
2019,03,18,10,19,10.10
2019,03,18,10,20,10.10
2019,03,18,10,21,10.20
2019,03,18,10,22,10.20
2019,03,18,10,23,10.30
2019,03,18,10,24,10.40
2019,03,18,10,25,10.50
2019,03,18,10,26,10.60
2019,03,18,10,27,10.70
2019,03,18,10,28,10.70
2019,03,18,10,29,10.80
2019,03,18,10,30,10.80
2019,03,18,10,31,10.90
2019,03,18,10,32,11.00
2019,03,18,10,33,11.10
2019,03,18,10,34,11.10
2019,03,18,10,35,11.10
2019,03,18,10,36,11.10
2019,03,18,10,37,11.20
2019,03,18,10,38,11.20
2019,03,18,10,39,11.10
2019,03,18,10,40,11.20
2019,03,18,10,41,11.20
2019,03,18,10,42,11.20
2019,03,18,10,43,11.30
2019,03,18,10,44,11.30
2019,03,18,10,45,11.30
2019,03,18,10,46,11.30
2019,03,18,10,47,11.30
2019,03,18,10,48,11.30
2019,03,18,10,49,11.40
2019,03,18,10,50,11.30
2019,03,18,10,51,11.30
2019,03,18,10,52,11.30
2019,03,18,10,53,11.30
2019,03,18,10,54,11.30
2019,03,18,10,55,11.30
2019,03,18,10,56,11.30
2019,03,18,10,57,11.40
2019,03,18,10,58,11.30
2019,03,18,10,59,11.30
2019,03,18,11,00,11.30
2019,03,18,11,01,11.20
2019,03,18,11,02,11.20
2019,03,18,11,03,11.20
2019,03,18,11,04,11.20
2019,03,18,11,05,11.20
2019,03,18,11,06,11.30
2019,03,18,11,07,11.30
2019,03,18,11,08,11.30
2019,03,18,11,09,11.20
2019,03,18,11,10,11.20
2019,03,18,11,11,11.20
2019,03,18,11,12,11.30
2019,03,18,11,13,11.30
2019,03,18,11,14,11.30
2019,03,18,11,15,11.20
2019,03,18,11,16,11.20
2019,03,18,11,17,11.20
2019,03,18,11,18,11.20
2019,03,18,11,19,11.20
2019,03,18,11,20,11.30
2019,03,18,11,21,11.30
2019,03,18,11,22,11.30
2019,03,18,11,23,11.30
2019,03,18,11,24,11.30
2019,03,18,11,25,11.30
2019,03,18,11,26,11.40
2019,03,18,11,27,11.40
2019,03,18,11,28,11.40
2019,03,18,11,29,11.40
2019,03,18,11,30,11.40
2019,03,18,11,31,11.50
2019,03,18,11,32,11.50
2019,03,18,11,33,11.60
2019,03,18,11,34,11.70
2019,03,18,11,35,11.70
2019,03,18,11,36,11.70
2019,03,18,11,37,11.70
2019,03,18,11,38,11.70
2019,03,18,11,39,11.80
2019,03,18,11,40,11.80
2019,03,18,11,41,11.80
2019,03,18,11,42,11.70
2019,03,18,11,43,11.70
2019,03,18,11,44,11.70
2019,03,18,11,45,11.70
2019,03,18,11,46,11.70
2019,03,18,11,47,11.70
2019,03,18,11,48,11.70
2019,03,18,11,49,11.70
2019,03,18,11,50,11.70
2019,03,18,11,51,11.70
2019,03,18,11,52,11.70
2019,03,18,11,53,11.70
2019,03,18,11,54,11.70
2019,03,18,11,55,11.70
2019,03,18,11,56,11.70
2019,03,18,11,57,11.70
2019,03,18,11,58,11.70
2019,03,18,11,59,11.70
2019,03,18,12,00,11.70
2019,03,18,12,01,11.70
2019,03,18,12,02,11.70
2019,03,18,12,03,11.70
2019,03,18,12,04,11.70
2019,03,18,12,05,11.70
2019,03,18,12,06,11.70
2019,03,18,12,07,11.70
2019,03,18,12,08,11.70
2019,03,18,12,09,11.70
2019,03,18,12,10,11.70
2019,03,18,12,11,11.70
2019,03,18,12,12,11.80
2019,03,18,12,13,11.80
2019,03,18,12,14,11.80
2019,03,18,12,15,11.80
2019,03,18,12,16,11.80
2019,03,18,12,17,11.90
2019,03,18,12,18,11.90
2019,03,18,12,19,11.90
2019,03,18,12,20,12.00
2019,03,18,12,21,11.90
2019,03,18,12,22,12.00
2019,03,18,12,23,12.00
2019,03,18,12,24,12.10
2019,03,18,12,25,12.10
2019,03,18,12,26,12.10
2019,03,18,12,27,12.10
2019,03,18,12,28,12.20
2019,03,18,12,29,12.20
2019,03,18,12,30,12.20
2019,03,18,12,31,12.20
2019,03,18,12,32,12.20
2019,03,18,12,33,12.30
2019,03,18,12,34,12.30
2019,03,18,12,35,12.30
2019,03,18,12,36,12.20
2019,03,18,12,37,12.20
2019,03,18,12,38,12.30
2019,03,18,12,39,12.20
2019,03,18,12,40,12.20
2019,03,18,12,41,12.20
2019,03,18,12,42,12.30
2019,03,18,12,43,12.30
2019,03,18,12,44,12.30
2019,03,18,12,45,12.30
2019,03,18,12,46,12.30
2019,03,18,12,47,12.30
2019,03,18,12,48,12.30
2019,03,18,12,49,12.30
2019,03,18,12,50,12.20
2019,03,18,12,51,12.20
2019,03,18,12,52,12.10
2019,03,18,12,53,12.10
2019,03,18,12,54,12.10
2019,03,18,12,55,12.20
2019,03,18,12,56,12.30
2019,03,18,12,57,12.30
2019,03,18,12,58,12.30
2019,03,18,12,59,12.30
2019,03,18,13,00,12.30
2019,03,18,13,01,12.30
2019,03,18,13,02,12.40
2019,03,18,13,03,12.40
2019,03,18,13,04,12.40
2019,03,18,13,05,12.40
2019,03,18,13,06,12.40
2019,03,18,13,07,12.40
2019,03,18,13,08,12.40
2019,03,18,13,09,12.50
2019,03,18,13,10,12.50
2019,03,18,13,11,12.50
2019,03,18,13,12,12.50
2019,03,18,13,13,12.50
2019,03,18,13,14,12.50
2019,03,18,13,15,12.40
2019,03,18,13,16,12.50
2019,03,18,13,17,12.60
2019,03,18,13,18,12.60
2019,03,18,13,19,12.60
2019,03,18,13,20,12.60
2019,03,18,13,21,12.70
2019,03,18,13,22,12.70
2019,03,18,13,23,12.70
2019,03,18,13,24,12.80
2019,03,18,13,25,12.80
2019,03,18,13,26,12.90
2019,03,18,13,27,12.90
2019,03,18,13,28,12.90
2019,03,18,13,29,13.00
2019,03,18,13,30,13.00
2019,03,18,13,31,13.00
2019,03,18,13,32,13.00
2019,03,18,13,33,13.10
2019,03,18,13,34,13.20
2019,03,18,13,35,13.20
2019,03,18,13,36,13.30
2019,03,18,13,37,13.30
2019,03,18,13,38,13.30
2019,03,18,13,39,13.40
2019,03,18,13,40,13.40
2019,03,18,13,41,13.50
2019,03,18,13,42,13.50
2019,03,18,13,43,13.60
2019,03,18,13,44,13.60
2019,03,18,13,45,13.60
2019,03,18,13,46,13.60
2019,03,18,13,47,13.70
2019,03,18,13,48,13.70
2019,03,18,13,49,13.80
2019,03,18,13,50,13.80
2019,03,18,13,51,13.80
2019,03,18,13,52,13.90
2019,03,18,13,53,13.90
2019,03,18,13,54,13.90
2019,03,18,13,55,13.80
2019,03,18,13,56,13.80
2019,03,18,13,57,13.80
2019,03,18,13,58,13.80
2019,03,18,13,59,13.80
2019,03,18,14,00,13.70
2019,03,18,14,01,13.70
2019,03,18,14,02,13.70
2019,03,18,14,03,13.70
2019,03,18,14,04,13.60
2019,03,18,14,05,13.50
2019,03,18,14,06,13.40
2019,03,18,14,07,13.40
2019,03,18,14,08,13.30
2019,03,18,14,09,13.30
2019,03,18,14,10,13.30
2019,03,18,14,11,13.30
2019,03,18,14,12,13.30
2019,03,18,14,13,13.40
2019,03,18,14,14,13.40
2019,03,18,14,15,13.40
2019,03,18,14,16,13.30
2019,03,18,14,17,13.40
2019,03,18,14,18,13.40
2019,03,18,14,19,13.30
2019,03,18,14,20,13.30
2019,03,18,14,21,13.30
2019,03,18,14,22,13.40
2019,03,18,14,23,13.40
2019,03,18,14,24,13.50
2019,03,18,14,25,13.40
2019,03,18,14,26,13.40
2019,03,18,14,27,13.40
2019,03,18,14,28,13.50
2019,03,18,14,29,13.50
2019,03,18,14,30,13.50
2019,03,18,14,31,13.50
2019,03,18,14,32,13.60
2019,03,18,14,33,13.60
2019,03,18,14,34,13.60
2019,03,18,14,35,13.60
2019,03,18,14,36,13.60
2019,03,18,14,37,13.70
2019,03,18,14,38,13.70
2019,03,18,14,39,13.80
2019,03,18,14,40,13.80
2019,03,18,14,41,13.80
2019,03,18,14,42,13.80
2019,03,18,14,43,13.90
2019,03,18,14,44,14.00
2019,03,18,14,45,14.00
2019,03,18,14,46,14.10
2019,03,18,14,47,14.00
2019,03,18,14,48,14.00
2019,03,18,14,49,14.10
2019,03,18,14,50,14.00
2019,03,18,14,51,14.00
2019,03,18,14,52,14.10
2019,03,18,14,53,14.00
2019,03,18,14,54,13.90
2019,03,18,14,55,13.90
2019,03,18,14,56,13.90
2019,03,18,14,57,13.90
2019,03,18,14,58,13.90
2019,03,18,14,59,14.10
2019,03,18,15,00,14.20
2019,03,18,15,01,14.30
2019,03,18,15,02,14.30
2019,03,18,15,03,14.40
2019,03,18,15,04,14.40
2019,03,18,15,05,14.40
2019,03,18,15,06,14.40
2019,03,18,15,07,14.40
2019,03,18,15,08,14.50
2019,03,18,15,09,14.50
2019,03,18,15,10,14.50
2019,03,18,15,11,14.60
2019,03,18,15,12,14.60
2019,03,18,15,13,14.60
2019,03,18,15,14,14.60
2019,03,18,15,15,14.70
2019,03,18,15,16,14.70
2019,03,18,15,17,14.70
2019,03,18,15,18,14.80
2019,03,18,15,19,14.80
2019,03,18,15,20,14.80
2019,03,18,15,21,14.90
2019,03,18,15,22,14.90
2019,03,18,15,23,14.90
2019,03,18,15,24,14.90
2019,03,18,15,25,14.90
2019,03,18,15,26,15.00
2019,03,18,15,27,15.00
2019,03,18,15,28,15.00
2019,03,18,15,29,15.10
2019,03,18,15,30,15.10
2019,03,18,15,31,15.20
2019,03,18,15,32,15.20
2019,03,18,15,33,15.20
2019,03,18,15,34,15.20
2019,03,18,15,35,15.30
2019,03,18,15,36,15.30
2019,03,18,15,37,15.20
2019,03,18,15,38,15.20
2019,03,18,15,39,15.20
2019,03,18,15,40,15.30
2019,03,18,15,41,15.30
2019,03,18,15,42,15.30
2019,03,18,15,43,15.40
2019,03,18,15,44,15.40
2019,03,18,15,45,15.40
2019,03,18,15,46,15.40
2019,03,18,15,47,15.40
2019,03,18,15,48,15.40
2019,03,18,15,49,15.50
2019,03,18,15,50,15.50
2019,03,18,15,51,15.50
2019,03,18,15,52,15.50
2019,03,18,15,53,15.50
2019,03,18,15,54,15.50
2019,03,18,15,55,15.50
2019,03,18,15,56,15.50
2019,03,18,15,57,15.50
2019,03,18,15,58,15.50
2019,03,18,15,59,15.50
2019,03,18,16,00,15.50
2019,03,18,16,01,15.60
2019,03,18,16,02,15.60
2019,03,18,16,03,15.60
2019,03,18,16,04,15.60
2019,03,18,16,05,15.60
2019,03,18,16,06,15.70
2019,03,18,16,07,15.70
2019,03,18,16,08,15.70
2019,03,18,16,09,15.70
2019,03,18,16,10,15.80
2019,03,18,16,11,15.80
2019,03,18,16,12,15.80
2019,03,18,16,13,15.80
2019,03,18,16,14,15.80
2019,03,18,16,15,15.80
2019,03,18,16,16,15.80
2019,03,18,16,17,15.80
2019,03,18,16,18,15.90
2019,03,18,16,19,15.80
2019,03,18,16,20,15.90
2019,03,18,16,21,15.90
2019,03,18,16,22,15.90
2019,03,18,16,23,15.90
2019,03,18,16,24,16.00
2019,03,18,16,25,16.10
2019,03,18,16,26,16.10
2019,03,18,16,27,16.10
2019,03,18,16,28,16.00
2019,03,18,16,29,16.00
2019,03,18,16,30,16.00
2019,03,18,16,31,16.00
2019,03,18,16,32,16.00
2019,03,18,16,33,16.00
2019,03,18,16,34,16.00
2019,03,18,16,35,16.00
2019,03,18,16,36,16.00
2019,03,18,16,37,16.00
2019,03,18,16,38,16.00
2019,03,18,16,39,16.00
2019,03,18,16,40,15.90
2019,03,18,16,41,15.90
2019,03,18,16,42,15.90
2019,03,18,16,43,15.90
2019,03,18,16,44,15.90
2019,03,18,16,45,15.90
2019,03,18,16,46,15.90
2019,03,18,16,47,15.90
2019,03,18,16,48,15.80
2019,03,18,16,49,15.80
2019,03,18,16,50,15.80
2019,03,18,16,51,15.90
2019,03,18,16,52,15.90
2019,03,18,16,53,15.80
2019,03,18,16,54,15.80
2019,03,18,16,55,15.80
2019,03,18,16,56,15.80
2019,03,18,16,57,15.80
2019,03,18,16,58,15.80
2019,03,18,16,59,15.80
2019,03,18,17,00,15.80
2019,03,18,17,01,15.80
2019,03,18,17,02,15.70
2019,03,18,17,03,15.80
2019,03,18,17,04,15.80
2019,03,18,17,05,15.80
2019,03,18,17,06,15.80
2019,03,18,17,07,15.80
2019,03,18,17,08,15.90
2019,03,18,17,09,15.90
2019,03,18,17,10,15.90
2019,03,18,17,11,15.90
2019,03,18,17,12,15.90
2019,03,18,17,13,15.90
2019,03,18,17,14,15.90
2019,03,18,17,15,15.90
2019,03,18,17,16,15.90
2019,03,18,17,17,15.90
2019,03,18,17,18,15.90
2019,03,18,17,19,15.80
2019,03,18,17,20,15.80
2019,03,18,17,21,15.80
2019,03,18,17,22,15.80
2019,03,18,17,23,15.80
2019,03,18,17,24,15.80
2019,03,18,17,25,15.80
2019,03,18,17,26,15.90
2019,03,18,17,27,15.90
2019,03,18,17,28,15.90
2019,03,18,17,29,15.80
2019,03,18,17,30,15.80
2019,03,18,17,31,15.80
2019,03,18,17,32,15.80
2019,03,18,17,33,15.90
2019,03,18,17,34,15.90
2019,03,18,17,35,15.90
2019,03,18,17,36,15.90
2019,03,18,17,37,15.90
2019,03,18,17,38,15.90
2019,03,18,17,39,15.90
2019,03,18,17,40,15.90
2019,03,18,17,41,15.90
2019,03,18,17,42,15.90
2019,03,18,17,43,15.90